カタログに戻る

THOR ABLESTAR DEB

運用中LEO
NORAD 154·DEBRIS·🇺🇸 United States

打ち上げ Jun 29, 1961 から Cape Canaveral Space Force Station

Loading…

次のパス (今後24時間)

TLE

最新Source: Space-Track

元期: Sep 5, 2026, 11:14 UTC

1 00154U 61015AQ  26248.46848484  .00000056  00000-0  80253-4 0  9994
2 00154  66.6587 310.8799 0087090 315.3412  44.0681 14.06368834327929

AllMySatでTHOR ABLESTAR DEBをリアルタイム追跡

Download on the App Store